Location: Allos
(44.2333°N, 6.6333°E)
Time: 17:45:38
(UTC+00:00)

H-2A R/B - Visible Passes

Search period start: 16 April 2021 00:00
Search period end: 26 April 2021 00:00
Orbit: 501 x 538 km, 97.3° (Epoch: 12 March)

Date Brightness Start Highest point End Pass type
(mag) Time Alt. Az. Time Alt. Az. Time Alt. Az.
18 Apr 5.5 04:12:06 10° NE 04:14:58 21° E 04:17:49 10° SE visible
19 Apr 5.7 03:58:55 10° NE 04:01:03 15° E 04:03:12 10° SE visible
20 Apr 6.3 03:46:48 10° E 03:47:07 10° E 03:47:27 10° E visible
